Starlink 33925

operational
NORAD ID: 63793 Int'l Des: 2025-091 Owner: SPXS Country: US Constellation: starlink
LEOCIRCULAR

About Starlink 33925

Description loading...

Live Position

Loading 3D Globe...

Upcoming Passes

Altitude History

Altitude vs Time

uPlot chart will show altitude changes over time

Two-Line Element Set

1 63793U 25091U 25349.85837264 .00023521 00000-0 86139-3 0 9994
2 63793 42.9985 165.7527 0001559 275.8261 84.2413 15.27585527 36199
Epoch: Dec 15, 2025 • Age: 27 hours

Current Status

Altitude 483.3 km
Velocity 7.63 km/s
Sub-Earth Point 23.08°N, 132.22°W
Launch Date May 2, 2025
Age 0.6 years
Type internet

Technical Details

Classification Payload
Mass 575.00 kg
Dry Mass 530.00 kg
Total Mass 575.00 kg
Length 0.30 m
Diameter 4.10 m
Span 29.00 m
Shape Box + pan
Manufacturer SPXS
Bus Type Starlink V2MO
Phase Status In Orbit
Owner/State SPXS/US

Large Constellations

Loading constellations...